Location: �perlecques
(50.8057°N, 2.1521°E)
Time: 20:12:34
(UTC+00:00)

Tiros 1 - Pass Details

Date: 03 August 2021
Orbit: 630 x 663 km, 48.4° (Epoch: 28 September)

Event Time Altitude Azimuth Distance (km) Brightness Sun altitude
Rises 18:53:48 0° 253° (WSW) 2,983 11.5 4.8°
Reaches altitude 10° 18:56:10 10° 249° (WSW) 2,068 10.6 4.5°
Maximum altitude 19:00:52 61° 170° (S) 743 7.4 3.8°
Drops below altitude 10° 19:05:32 10° 91° (E) 2,051 9.2 3.1°
Sets 19:07:53 0° 88° (E) 2,956 10.0 2.8°
